星链-37816(STARLINK-37816)

导读

STARLINK-37816(NORAD编号69478)是美国SpaceX公司星链低轨互联网星座的所属卫星,属于2026年发射的批次星链卫星。它运行在近地轨道上,核心功能是为全球地面用户提供高速、低延迟的星链宽带互联网接入服务。目前该卫星处于在轨运行状态,作为星链大规模组网的组成部分,与数千颗同系列卫星协同覆盖通信区域,支撑偏远地区、移动场景下的网络接入需求。公开数据显示,星链卫星普遍设计寿命约5-7年,退役后将主动离轨进入大气层焚毁。

Basic Information
目录编号:
69478
目录名称:
STARLINK-37816
国际标识:
2026-131A
轨道中心:
EARTH
卫星名称:
星链-37816
卫星全名:
星链-37816(STARLINK-37816)
卫星状态:
在轨 (已飞行86 天)
发射日期:
2026-06-11 UTC
国别 :
美国 (US)
星等 :
--
Orbit Information
数据来源 国际轨道数据
星历时间: 2026-09-05T02:41:01+0800
13小时前
查看轨道信息
半长轴: 6843.66km
偏心率: 0.0000664
轨道倾角: 97.286°
近地点辐角 106.217°
升交点赤经 268.952°
平近点角 253.915°
近地点: 465.068km
远地点: 465.978km
周期: 93.906分钟
每日圈数: 15.334519
Detailed Information
固有亮度:
5
最大亮度:
2.5
卫星平台:
Starlink V1.0
覆盖范围:
全球
运营商:
太空探索技术公司
运营商所在国:
美国
制造商(研发单位):
太空探索技术公司
制造商所在国:
美国
使用方式:
暂无
Satellite Introduction
Starlink 计划是 SpaceX 推出的全球卫星互联网项目,通过发射低轨道卫星,为全球尤其是偏远地区提供高速、低延迟的互联网服务。自 2019 年起,Starlink 已部署数千颗卫星,旨在缩小全球数字鸿沟,推动互联网普及。该项目还为军事、航空等行业提供通信支持,带来广泛经济效益。
2D Orbit Map
3D Orbit Map
Orbit Altitude Analysis Chart
Orbit Inclination Analysis Chart
Orbit Comprehensive Analysis Chart
View Comprehensive Chart
Conjunction Data List
Event ID Objects TCA Miss Dist (km) Collision Risk Probability Collision Risk Index (CRI) Action
CDM_260829-165704-975406-947821
2026-08-29T
16:57:29+0000
1.689 km
极远距离
4.586177E-6 低风险 0.48
CDM_260830-091506-426306-947821
2026-08-30T
09:15:23+0000
2.512 km
极远距离
1.639516E-6 低风险 0.39
CDM_260829-203105-866306-947821
2026-08-29T
20:31:16+0000
2.490 km
极远距离
1.498577E-6 低风险 0.39
CDM_260906-120004-844406-947821
2026-09-06T
12:00:18+0000
2.968 km
极远距离
1.326281E-6 低风险 0.37